Вернуться в каталог

STARLINK-32877

АктивенСвязьVLEO
NORAD 62960·PAYLOAD·🇺🇸 United States

Запущен Feb 11, 2025 с Vandenberg Space Force Base

Loading…

Ближайшие Пролёты (ближайшие 24 часа)

TLE

СвежийSource: CelesTrak SupGP

Эпоха: Sep 14, 2026, 22:39 UTC

1 62960C 25029N   26257.94423611  .00043956  00000+0  12988-2 0  2576
2 62960  53.1582  71.4304 0001159  77.4589 184.3604 15.34366524    10

Отслеживайте STARLINK-32877 в реальном времени с AllMySat

Download on the App Store